Location: *
(38.4942°N, 43.3800°E)
Time: 08:25:31
(UTC+00:00)

Daily predictions for brighter satellites

Satellite Brightness Start Highest point End
(mag) Time Altitude Azimuth Time Altitude Azimuth Time Altitude Azimuth
OAO 3 Rocket 3.9 14:08:43 10° WSW 14:13:13 48° S 14:17:48 10° E
Exosat Rocket 3.6 14:08:25 10° SSW 14:14:04 85° ESE 14:19:03 10° NNE
Meteor 1-10 Rocket 4.4 14:10:53 10° SSW 14:16:24 77° W 14:22:02 10° N
Cosmos 304 Rocket 4.3 14:13:32 10° NNW 14:18:18 67° WSW 14:23:04 10° S
AQUARIUS 4.4 14:14:44 10° SE 14:19:02 47° ENE 14:23:21 10° N
CORIOLIS 4.4 14:15:03 10° SE 14:20:15 48° ENE 14:25:29 10° N
COSMO-SKYMED 1 3.9 14:17:10 10° NE 14:20:23 20° E 14:23:35 10° SE
Envisat 3.7 14:16:58 10° SE 14:21:21 30° ENE 14:25:44 10° N
ISS -3.2 14:19:41 10° NW 14:22:51 38° NNE 14:26:01 10° ESE
YAOGAN 1 4.3 14:22:29 10° E 14:24:04 12° ENE 14:25:40 10° NE
USA 267 3.3 14:17:54 10° ESE 14:24:17 60° NE 14:30:42 10° NW
Cosmos 2219 Rocket 3.5 14:19:30 10° SW 14:24:40 38° WNW 14:29:54 10° N
ATLAS 3B R/B 3.8 14:19:47 10° NW 14:26:16 50° WSW 14:32:54 10° S
Cosmos 1812 2.8 14:23:09 10° S 14:27:01 84° W 14:30:54 10° N
IRS-1C Rocket 4.1 14:22:45 10° SSE 14:28:00 76° ENE 14:33:16 10° N
Okean 1-7 4.1 14:24:34 10° SE 14:28:02 24° E 14:31:32 10° NE
STARLINK-60 3.5 14:26:24 10° WSW 14:29:43 59° NW 14:32:59 11° NE
COBE Rocket 3.7 14:26:03 10° NNE 14:30:43 77° ESE 14:35:25 10° S
Atlas Centaur 2 4.4 14:25:02 10° WSW 14:31:23 33° SSW 14:38:35 10° SE
YAOGAN 6 3.9 14:31:08 10° ESE 14:33:42 19° ENE 14:36:18 10° NNE
Meteor 1-27 Rocket 3.8 14:28:52 10° S 14:34:34 89° W 14:40:27 10° N
Meteor 1-11 Rocket 3.9 14:29:57 10° N 14:35:58 86° E 14:41:54 10° S
Cosmos 1992 Rocket 4.0 14:32:35 10° NNW 14:37:47 66° ENE 14:42:58 10° SSE
Cosmos 1733 Rocket 3.4 14:34:56 10° NNW 14:39:18 71° W 14:43:41 10° S
Radarsat 4.5 14:34:30 10° SSE 14:39:41 77° ENE 14:44:53 10° N
Cosmos 1980 4.1 14:37:09 10° SSW 14:42:45 67° WNW 14:48:23 10° NNE
Cosmos 1500 3.6 14:41:38 10° NNW 14:45:22 63° W 14:49:03 10° S
Cosmos 2297 4.3 14:48:20 10° N 14:53:25 32° ENE 14:58:26 10° ESE
Abrixas rocket 4.3 14:55:42 10° SSE 14:56:58 12° SE 14:57:09 12° SE
H-2A R/B 3.5 14:54:23 10° S 14:58:00 53° W 15:01:37 10° NNW
Cosmos 1627 Rocket 4.4 14:53:02 10° S 14:59:01 61° E 15:05:03 10° NNE
Cosmos 921 Rocket 3.6 14:58:08 10° N 15:01:59 32° ENE 15:05:53 10° SE
Cosmos 1441 Rocket 3.4 15:00:35 10° N 15:04:16 45° ENE 15:07:52 10° SSE
Cosmos 2195 Rocket 4.4 15:00:49 10° S 15:06:59 79° E 15:13:17 10° N
Cosmos 2221 Rocket 4.5 15:03:15 10° SSE 15:07:02 27° E 15:07:32 27° ENE
SKYMED 2 3.5 15:04:22 10° NNE 15:08:42 71° E 15:13:02 10° S
OAO 2 Rocket 3.7 15:04:04 10° W 15:08:59 59° S 15:12:10 22° ESE
Cosmos 1782 Rocket 3.7 15:05:55 10° N 15:10:09 49° E 15:14:20 10° SSE
Sich 1 Rocket 4.0 15:07:03 10° N 15:11:09 37° ENE 15:15:13 10° SSE
Cosmos 1092 Rocket 4.2 15:09:16 10° SSW 15:15:35 74° W 15:21:52 10° N
Cosmos 1703 Rocket 3.8 15:12:49 10° SSW 15:17:16 74° W 15:21:46 10° N
Cosmos 1536 4.2 15:14:39 10° NNW 15:18:26 41° W 15:22:11 10° SSW
Centaur D-1A AC-31 3.2 15:16:26 10° SW 15:19:42 27° SSE 15:25:35 14° ESE
Cosmos 1190 Rocket 3.9 15:17:59 10° S 15:23:09 72° ESE 15:26:29 22° NNE
Genesis I 3.6 15:20:06 10° NNW 15:23:24 42° NE 15:23:24 42° NE
Cosmos 676 Rocket 4.3 15:20:16 10° S 15:25:06 42° ESE 15:26:12 37° ENE
NOAA 11 4.5 15:20:20 10° SE 15:25:25 43° ENE 15:30:34 10° N
Aureole 1 Rocket 4.1 15:24:05 10° SW 15:26:41 27° WNW 15:28:41 14° NNW
Lacrosse 5 rocket 3.9 15:27:14 10° NW 15:28:41 12° NNW 15:30:08 10° N
FengYun 1-2 T 4.2 15:23:51 10° SSE 15:29:20 87° WSW 15:34:51 10° NNW
Cosmos 1666 3.8 15:26:09 10° NNW 15:29:43 44° W 15:33:16 10° SSW
STARLINK-43 3.3 15:26:33 10° SW 15:30:13 61° SE 15:30:21 60° ESE
CZ-4 R/B 1.1 15:28:54 10° SSE 15:32:50 87° ENE 15:36:43 10° NNW
Cosmos 2278 Rocket 3.9 15:28:35 10° NW 15:33:38 34° WSW 15:38:39 10° SSW
Cosmos 1954 Rocket 4.1 15:29:15 10° S 15:34:11 48° ESE 15:34:54 45° ENE
Okean-O 4.0 15:32:02 10° SSW 15:36:11 39° W 15:40:21 10° NNW
Okean 1 3.3 15:32:21 10° S 15:36:20 77° W 15:38:15 29° N
BREEZE-M DEB (TANK) 3.4 15:34:02 10° NW 15:36:42 26° NNW 15:36:42 26° NNW
SL-4 R/B 4.3 15:36:16 10° NNW 15:37:35 12° N 15:37:35 12° N
CZ-4C R/B 3.7 15:34:35 10° SSE 15:36:05 16° SE 15:36:05 16° SE
SL-16 R/B 2.7 15:39:25 10° SW 15:45:01 60° WNW 15:49:01 20° N
Cosmos 2369 Rocket 4.0 15:42:22 10° N 15:43:38 15° N 15:43:38 15° N
Shenzhou-11 Module 4.3 15:45:34 10° WNW 15:46:31 19° WNW 15:46:31 19° WNW
Meteor 2-13 Rocket 4.3 15:45:04 10° S 15:51:03 69° E 15:53:54 33° NNE
Cosmos 1603 4.3 15:46:26 10° S 15:50:42 39° SE 15:50:42 39° SE
S3M 3.9 15:45:57 10° N 15:52:04 60° E 15:58:06 10° SSE
Cosmos 1743 3.3 15:51:26 10° NNW 15:55:14 57° W 15:59:02 10° S
Cosmos 2237 Rocket 4.5 15:52:11 10° W 15:56:13 19° NW 16:00:14 10° N
OAO 3 Rocket 3.5 15:51:51 10° W 15:56:28 55° S 15:56:43 54° S
COSMO-SKYMED 1 4.2 15:52:42 10° N 15:56:34 32° WNW 16:00:25 10° SW
Meteor 1-19 Rocket 4.1 15:52:17 10° S 15:57:51 85° W 16:00:23 33° N
Cosmos 2266 Rocket 4.1 15:52:29 10° SSE 15:58:22 54° ESE 15:58:22 54° ESE
ISS -1.4 15:56:47 10° W 15:59:25 21° SW 16:00:05 20° SSW
YAOGAN 1 3.0 15:55:22 10° S 15:59:38 60° W 16:03:55 10° NNW
Meteor 2-4 Rocket 3.7 15:56:14 10° S 16:02:04 68° E 16:02:04 68° E
Cosmos 1553 Rocket 4.0 15:58:48 10° N 16:05:12 81° W 16:11:36 10° S
Lacrosse 5 3.1 16:01:02 10° SSW 16:03:54 29° S 16:03:54 29° S
Cosmos 1140 Rocket 4.0 16:03:50 10° SW 16:08:49 54° WNW 16:10:24 39° NNW
Cosmos 489 Rocket 4.4 16:15:32 10° NNW 16:21:55 84° WSW 16:23:22 56° S
Cosmos 1943 Rocket 3.9 16:19:49 10° NNW 16:21:33 20° N 16:21:33 20° N
CZ-3B R/B 3.9 16:22:47 10° SSW 16:27:28 24° SSE 16:27:28 24° SSE
